Weather History for Rochester, NY

Change the Weather History Date:

Sunday, May 26, 2013

  Actual Average Record
Temperature  
Mean Temperature 54 °F 60 °F  
Max Temperature 63 °F 71 °F 90 °F (1944)
Min Temperature 44 °F 50 °F 36 °F (1879)
Degree Days  
Heating Degree Days 11 6  
Month to date heating degree days 157 248  
Since 1 July heating degree days 5981 6551  
Cooling Degree Days 0 1  
Month to date cooling degree days 38 17  
Year to date cooling degree days 39 21  
Growing Degree Days 4 (Base 50)    
Moisture  
Dew Point 34 °F    
Average Humidity 51    
Maximum Humidity 71    
Minimum Humidity 30    
Precipitation  
Precipitation 0.00 in 0.10 in 1.03 in (1907)
Month to date precipitation 2.28 2.41  
Year to date precipitation 10.15 12.00  
Snow  
Snow 0.00 in 0.00 in 0.00 in ()
Month to date snowfall T 0.4  
Since 1 July snowfall 78.1 99.5  
Snow Depth 0.00 in    
Sea Level Pressure  
Sea Level Pressure 30.19 in    
Wind  
Wind Speed 11 mph (WNW)    
Max Wind Speed 22 mph    
Max Gust Speed 31 mph    
Visibility 10 miles    
Events      
T = Trace of Precipitation, MM = Missing Value Source: NWS Daily Summary

Daily Weather History Graph

Daily Weather History Graph

Search for Another Location

Airport:

Trip Planner

Search our weather history database for the weather conditions in past years. The results will help you decide how hot, cold, wet, or windy it might be!

Date:

Astronomy

May. 26, 2013 Rise Set
Actual Time 5:37 AM EDT 8:38 PM EDT
Civil Twilight 5:03 AM EDT 9:12 PM EDT
Nautical Twilight 4:20 AM EDT 9:56 PM EDT
Astronomical Twilight 3:28 AM EDT 10:47 PM EDT
Moon 10:23 PM EDT (5/26) 7:04 AM EDT (5/26)
Length of Visible Light 16h 09m
Length of Day
15h 01m
Waning Gibbous, 97% of the Moon is Illuminated
May 26
Waning Gibbous
May 31
Last Quarter
Jun 8
New
Jun 16
First Quarter
Jun 23
Full

Hourly Weather History & Observations

Time (EDT) Temp. Windchill Dew Point Humidity Pressure Visibility Wind Dir Wind Speed Gust Speed Precip Events Conditions
12:54 AM 46.9 °F - 37.0 °F 68% 30.16 in 10.0 mi WNW 9.2 mph - N/A   Clear
1:54 AM 46.0 °F 42.5 °F 37.0 °F 71% 30.15 in 10.0 mi WNW 6.9 mph - N/A   Clear
2:54 AM 46.0 °F 41.9 °F 37.0 °F 71% 30.14 in 10.0 mi NW 8.1 mph - N/A   Clear
3:54 AM 45.0 °F 40.1 °F 36.0 °F 71% 30.14 in 10.0 mi NW 9.2 mph - N/A   Clear
4:54 AM 45.0 °F 40.1 °F 36.0 °F 71% 30.14 in 10.0 mi WNW 9.2 mph - N/A   Partly Cloudy
5:54 AM 45.0 °F 40.1 °F 36.0 °F 71% 30.16 in 10.0 mi WNW 9.2 mph - N/A   Partly Cloudy
6:54 AM 46.9 °F - 36.0 °F 66% 30.17 in 10.0 mi WNW 11.5 mph - N/A   Scattered Clouds
7:54 AM 50.0 °F - 35.1 °F 57% 30.19 in 10.0 mi NW 11.5 mph 18.4 mph N/A   Scattered Clouds
8:54 AM 52.0 °F - 34.0 °F 50% 30.20 in 10.0 mi NW 13.8 mph 19.6 mph N/A   Partly Cloudy
9:54 AM 54.0 °F - 34.0 °F 47% 30.20 in 10.0 mi NW 11.5 mph 18.4 mph N/A   Partly Cloudy
10:54 AM 57.0 °F - 34.0 °F 42% 30.21 in 10.0 mi NNW 12.7 mph - N/A   Partly Cloudy
11:54 AM 57.9 °F - 30.9 °F 36% 30.21 in 10.0 mi NNW 13.8 mph 23.0 mph N/A   Scattered Clouds
12:54 PM 57.9 °F - 30.0 °F 35% 30.22 in 10.0 mi NW 8.1 mph 20.7 mph N/A   Scattered Clouds
1:54 PM 60.1 °F - 32.0 °F 35% 30.21 in 10.0 mi NW 12.7 mph 25.3 mph N/A   Scattered Clouds
2:54 PM 61.0 °F - 30.0 °F 31% 30.21 in 10.0 mi WNW 16.1 mph 24.2 mph N/A   Partly Cloudy
3:54 PM 61.0 °F - 30.9 °F 32% 30.21 in 10.0 mi WNW 16.1 mph 23.0 mph N/A   Partly Cloudy
4:54 PM 62.1 °F - 30.0 °F 30% 30.20 in 10.0 mi WNW 16.1 mph - N/A   Partly Cloudy
5:54 PM 62.1 °F - 32.0 °F 32% 30.19 in 10.0 mi NNW 13.8 mph 20.7 mph N/A   Partly Cloudy
6:54 PM 61.0 °F - 33.1 °F 35% 30.19 in 10.0 mi West 13.8 mph 19.6 mph N/A   Partly Cloudy
7:54 PM 59.0 °F - 33.1 °F 38% 30.19 in 10.0 mi WNW 12.7 mph - N/A   Partly Cloudy
8:54 PM 55.9 °F - 34.0 °F 44% 30.19 in 10.0 mi West 8.1 mph - N/A   Partly Cloudy
9:54 PM 53.1 °F - 34.0 °F 48% 30.20 in 10.0 mi West 5.8 mph - N/A   Clear
10:54 PM 52.0 °F - 33.1 °F 49% 30.21 in 10.0 mi West 5.8 mph - N/A   Clear
11:54 PM 46.9 °F - 36.0 °F 66% 30.22 in 10.0 mi WSW 4.6 mph - N/A   Clear